User: anonymous   Login
Location: Unspecified
(0.0000°N, 0.0000°E)
Time: 21:45:23
(UTC+00:00)
Language:

COSMOS 2391 - Orbit

View from above orbital plane
View from above orbital plane
View from above satellite
View from above satellite

Ground track
Ground track

The orbit data is extracted from the following two-line orbital elements,

1 27465U 02036B   17117.75059466 +.00000014 +00000-0 +31552-4 0  9999
2 27465 082.4799 269.5047 0025702 358.2703 001.8289 12.44876771672811
Epoch (UTC): 27 April 2017 18:00:51
Eccentricity: 0.0025702
inclination: 82.4799°
perigee height: 1466 km
apogee height: 1506 km
right ascension of ascending node: 269.5047°
argument of perigee: 358.2703°
revolutions per day: 12.44876771
mean anomaly at epoch: 1.8289°
orbit number at epoch: 67281

The dashed part of the orbit path shows where the satellite is in the earth's shadow,  

DLR